Time,TemperatureF,DewpointF,PressureIn,WindDirection,WindDirectionDegrees,WindSpeedMPH,WindSpeedGustMPH,Humidity,HourlyPrecipIn,Conditions,Clouds,dailyrainin,SoftwareType,DateUTC
2013-08-04 00:12:00,68.9,68.9,29.95,NW,315,3.0,-999.0,0,0.00,,,66.06,meteohub,2013-08-04 04:12:00,
2013-08-04 00:17:00,68.9,68.9,29.95,NW,315,3.0,3.0,0,99.99,,,99.99,meteohub,2013-08-04 04:17:00,
2013-08-04 00:22:00,68.9,68.9,29.94,NW,315,3.0,3.0,0,99.99,,,99.99,meteohub,2013-08-04 04:22:00,
2013-08-04 00:27:00,70.2,69.3,29.95,SE,135,0.0,3.0,97,99.99,,,99.99,meteohub,2013-08-04 04:27:00,
2013-08-04 00:28:00,70.2,69.3,29.94,SE,135,0.0,3.0,97,99.99,,,99.99,meteohub,2013-08-04 04:28:00,
2013-08-04 07:29:00,72.5,72.1,29.94,West,270,0.0,-999.0,99,-99.99,,,99.99,meteohub,2013-08-04 11:29:00,
2013-08-04 07:35:00,72.7,72.3,29.94,West,270,2.0,2.0,99,0.00,,,99.99,meteohub,2013-08-04 11:35:00,
2013-08-04 07:41:00,72.9,72.5,29.94,NW,315,1.0,2.0,99,0.00,,,99.99,meteohub,2013-08-04 11:41:00,
2013-08-04 07:47:00,72.9,72.5,29.94,NW,315,1.0,2.0,99,0.00,,,99.99,meteohub,2013-08-04 11:47:00,
2013-08-04 07:52:00,73.0,72.7,29.94,NW,315,1.0,2.0,99,0.00,,,99.99,meteohub,2013-08-04 11:52:00,
2013-08-04 07:57:00,73.0,72.7,29.94,NW,315,2.0,2.0,99,0.00,,,99.99,meteohub,2013-08-04 11:57:00,
2013-08-04 08:02:00,73.2,72.9,29.94,NW,315,0.0,2.0,99,0.00,,,99.99,meteohub,2013-08-04 12:02:00,
2013-08-04 08:09:00,73.6,73.2,29.94,NW,315,2.0,2.0,99,0.00,,,99.99,meteohub,2013-08-04 12:09:00,
2013-08-04 08:15:00,73.8,73.4,29.94,NW,315,1.0,2.0,99,0.00,,,99.99,meteohub,2013-08-04 12:15:00,
2013-08-04 08:21:00,73.9,73.6,29.95,NW,315,1.0,3.0,99,0.00,,,99.99,meteohub,2013-08-04 12:21:00,
2013-08-04 08:27:00,73.9,73.6,29.95,NW,315,0.0,3.0,99,0.00,,,99.99,meteohub,2013-08-04 12:27:00,
2013-08-04 08:33:00,74.1,73.8,29.95,NW,315,0.0,2.0,99,0.00,,,99.99,meteohub,2013-08-04 12:33:00,
2013-08-04 08:39:00,74.3,73.9,29.95,NW,315,2.0,2.0,99,0.00,,,99.99,meteohub,2013-08-04 12:39:00,
2013-08-04 08:45:00,74.3,73.9,29.96,West,270,2.0,2.0,99,0.00,,,99.99,meteohub,2013-08-04 12:45:00,
2013-08-04 08:51:00,74.3,73.9,29.96,NW,315,2.0,2.0,99,0.00,,,99.99,meteohub,2013-08-04 12:51:00,
2013-08-04 08:57:00,74.1,73.8,29.96,NW,315,2.0,3.0,99,0.00,,,99.99,meteohub,2013-08-04 12:57:00,
2013-08-04 09:01:00,73.9,73.6,29.97,NE,45,2.0,3.0,99,0.00,,,99.99,meteohub,2013-08-04 13:01:00,
2013-08-04 09:07:00,73.8,73.4,29.96,NE,45,2.0,3.0,99,0.00,,,99.99,meteohub,2013-08-04 13:07:00,
2013-08-04 09:13:00,73.8,73.4,29.97,NW,315,2.0,3.0,99,0.00,,,99.99,meteohub,2013-08-04 13:13:00,
2013-08-04 09:18:00,74.1,73.8,29.97,NE,45,3.0,3.0,99,0.00,,,99.99,meteohub,2013-08-04 13:18:00,
2013-08-04 09:24:00,74.1,73.6,29.97,West,270,5.0,5.0,98,0.00,,,99.99,meteohub,2013-08-04 13:24:00,
2013-08-04 09:31:00,74.1,73.6,29.97,South,180,2.0,8.0,98,0.00,,,99.99,meteohub,2013-08-04 13:31:00,
2013-08-04 09:37:00,74.3,72.9,29.97,NNW,338,2.0,8.0,95,0.00,,,99.99,meteohub,2013-08-04 13:37:00,
2013-08-04 09:43:00,74.7,72.9,29.98,NW,315,4.0,8.0,94,0.00,,,99.99,meteohub,2013-08-04 13:43:00,
2013-08-04 09:49:00,74.8,72.3,29.97,NW,315,2.0,6.0,92,0.00,,,99.99,meteohub,2013-08-04 13:49:00,
2013-08-04 09:55:00,74.7,72.1,29.98,SW,225,2.0,4.0,92,0.00,,,99.99,meteohub,2013-08-04 13:55:00,
2013-08-04 10:01:00,74.7,72.1,29.98,South,180,2.0,4.0,92,0.00,,,99.99,meteohub,2013-08-04 14:01:00,
2013-08-04 10:07:00,74.8,72.3,29.98,SW,225,2.0,3.0,92,0.00,,,99.99,meteohub,2013-08-04 14:07:00,
2013-08-04 10:12:00,75.2,72.1,29.99,East,90,2.0,4.0,90,0.00,,,99.99,meteohub,2013-08-04 14:12:00,
2013-08-04 10:17:00,75.9,71.4,29.98,NW,315,5.0,5.0,86,0.00,,,99.99,meteohub,2013-08-04 14:17:00,
2013-08-04 10:22:00,75.7,70.2,29.98,North,0,6.0,6.0,83,0.00,,,99.99,meteohub,2013-08-04 14:22:00,
2013-08-04 10:28:00,76.3,70.3,29.97,NNW,338,3.0,6.0,82,0.00,,,99.99,meteohub,2013-08-04 14:28:00,
2013-08-04 10:34:00,77.4,70.3,29.98,SW,225,3.0,8.0,79,0.00,,,99.99,meteohub,2013-08-04 14:34:00,
2013-08-04 10:41:00,77.7,70.0,29.98,North,0,2.0,8.0,77,0.00,,,99.99,meteohub,2013-08-04 14:41:00,
2013-08-04 10:46:00,77.7,69.6,29.99,NW,315,6.0,6.0,76,0.00,,,99.99,meteohub,2013-08-04 14:46:00,
2013-08-04 10:52:00,77.2,69.1,29.99,East,90,3.0,7.0,76,0.00,,,99.99,meteohub,2013-08-04 14:52:00,
2013-08-04 10:57:00,76.8,69.1,29.99,North,0,3.0,7.0,77,0.00,,,99.99,meteohub,2013-08-04 14:57:00,
2013-08-04 11:02:00,77.4,70.0,29.99,East,90,2.0,7.0,78,0.00,,,99.99,meteohub,2013-08-04 15:02:00,
2013-08-04 11:07:00,77.9,69.3,29.99,South,180,4.0,4.0,75,0.00,,,99.99,meteohub,2013-08-04 15:07:00,
2013-08-04 11:12:00,78.8,70.2,29.99,West,270,4.0,7.0,75,0.00,,,99.99,meteohub,2013-08-04 15:12:00,
2013-08-04 11:17:00,78.8,70.2,29.99,SE,135,2.0,7.0,75,0.00,,,99.99,meteohub,2013-08-04 15:17:00,
2013-08-04 11:23:00,79.5,70.5,30.00,West,270,2.0,5.0,74,0.00,,,99.99,meteohub,2013-08-04 15:23:00,
2013-08-04 11:29:00,80.6,70.3,30.00,SE,135,8.0,8.0,71,0.00,,,99.99,meteohub,2013-08-04 15:29:00,
2013-08-04 11:35:00,79.3,67.5,30.00,NW,315,3.0,8.0,67,0.00,,,99.99,meteohub,2013-08-04 15:35:00,
2013-08-04 11:41:00,79.0,66.6,30.00,SE,135,4.0,8.0,66,0.00,,,99.99,meteohub,2013-08-04 15:41:00,
2013-08-04 11:47:00,79.5,68.9,30.00,East,90,2.0,8.0,70,0.00,,,99.99,meteohub,2013-08-04 15:47:00,
2013-08-04 11:52:00,80.4,68.9,29.99,West,270,2.0,5.0,68,0.00,,,99.99,meteohub,2013-08-04 15:52:00,
2013-08-04 11:57:00,80.8,68.0,29.99,SW,225,5.0,5.0,65,0.00,,,99.99,meteohub,2013-08-04 15:57:00,
2013-08-04 12:03:00,81.0,66.2,30.00,WSW,248,4.0,5.0,61,0.00,,,99.99,meteohub,2013-08-04 16:03:00,
2013-08-04 12:09:00,80.8,68.4,29.99,SE,135,4.0,6.0,66,0.00,,,99.99,meteohub,2013-08-04 16:09:00,
2013-08-04 12:15:00,80.4,68.0,29.99,SW,225,4.0,6.0,66,0.00,,,99.99,meteohub,2013-08-04 16:15:00,
2013-08-04 12:21:00,81.1,65.5,29.98,NW,315,7.0,9.0,59,0.00,,,99.99,meteohub,2013-08-04 16:21:00,
2013-08-04 12:27:00,81.9,66.6,29.98,NNW,338,7.0,9.0,60,0.00,,,99.99,meteohub,2013-08-04 16:27:00,
2013-08-04 12:33:00,82.0,65.8,29.98,SW,225,4.0,9.0,58,0.00,,,99.99,meteohub,2013-08-04 16:33:00,
2013-08-04 12:39:00,81.0,65.3,29.98,NE,45,2.0,9.0,59,0.00,,,99.99,meteohub,2013-08-04 16:39:00,
2013-08-04 12:46:00,81.5,66.2,29.97,SW,225,3.0,5.0,60,0.00,,,99.99,meteohub,2013-08-04 16:46:00,
2013-08-04 12:52:00,82.4,66.2,29.98,SW,225,5.0,5.0,58,0.00,,,99.99,meteohub,2013-08-04 16:52:00,
2013-08-04 12:58:00,82.0,63.1,29.98,West,270,6.0,6.0,53,0.00,,,99.99,meteohub,2013-08-04 16:58:00,
2013-08-04 13:04:00,81.5,65.3,29.98,East,90,2.0,6.0,58,0.00,,,99.99,meteohub,2013-08-04 17:04:00,
2013-08-04 13:10:00,82.2,65.5,29.98,SW,225,2.0,6.0,57,0.00,,,99.99,meteohub,2013-08-04 17:10:00,
2013-08-04 13:16:00,82.8,63.9,29.97,South,180,2.0,5.0,53,0.00,,,99.99,meteohub,2013-08-04 17:16:00,
2013-08-04 13:21:00,82.8,63.9,29.98,South,180,3.0,5.0,53,0.00,,,99.99,meteohub,2013-08-04 17:21:00,
2013-08-04 13:27:00,82.2,64.9,29.98,North,0,2.0,5.0,56,0.00,,,99.99,meteohub,2013-08-04 17:27:00,
2013-08-04 13:32:00,82.4,67.6,29.98,South,180,3.0,3.0,61,0.00,,,99.99,meteohub,2013-08-04 17:32:00,
2013-08-04 13:38:00,82.9,65.7,29.98,North,0,7.0,7.0,56,0.00,,,99.99,meteohub,2013-08-04 17:38:00,
2013-08-04 13:44:00,82.8,63.3,29.98,NW,315,2.0,8.0,52,0.00,,,99.99,meteohub,2013-08-04 17:44:00,
2013-08-04 13:50:00,82.0,65.8,29.98,NW,315,2.0,8.0,58,0.00,,,99.99,meteohub,2013-08-04 17:50:00,
2013-08-04 13:56:00,82.4,66.6,29.98,NE,45,4.0,7.0,59,0.00,,,99.99,meteohub,2013-08-04 17:56:00,
2013-08-04 14:02:00,82.8,64.9,29.97,SW,225,4.0,7.0,55,0.00,,,99.99,meteohub,2013-08-04 18:02:00,
2013-08-04 14:07:00,83.7,66.4,29.97,West,270,3.0,7.0,56,0.00,,,99.99,meteohub,2013-08-04 18:07:00,
2013-08-04 14:11:00,84.4,64.8,29.97,North,0,4.0,7.0,52,0.00,,,99.99,meteohub,2013-08-04 18:11:00,
2013-08-04 14:17:00,83.3,61.0,29.97,NW,315,4.0,8.0,47,0.00,,,99.99,meteohub,2013-08-04 18:17:00,
2013-08-04 14:24:00,82.4,61.9,29.97,SW,225,2.0,8.0,50,0.00,,,99.99,meteohub,2013-08-04 18:24:00,
2013-08-04 14:30:00,83.1,64.8,29.96,NW,315,3.0,9.0,54,0.00,,,99.99,meteohub,2013-08-04 18:30:00,
2013-08-04 14:36:00,83.8,63.9,29.96,NW,315,2.0,9.0,51,0.00,,,99.99,meteohub,2013-08-04 18:36:00,
2013-08-04 14:42:00,84.6,62.8,29.96,NE,45,3.0,8.0,48,0.00,,,99.99,meteohub,2013-08-04 18:42:00,
2013-08-04 14:46:00,84.0,65.7,29.96,SW,225,3.0,8.0,54,0.00,,,99.99,meteohub,2013-08-04 18:46:00,
2013-08-04 14:52:00,84.0,66.2,29.96,North,0,3.0,5.0,55,0.00,,,99.99,meteohub,2013-08-04 18:52:00,
2013-08-04 14:58:00,84.6,60.8,29.96,East,90,4.0,4.0,45,0.00,,,99.99,meteohub,2013-08-04 18:58:00,
2013-08-04 15:04:00,85.1,61.3,29.96,East,90,4.0,4.0,45,0.00,,,99.99,meteohub,2013-08-04 19:04:00,
2013-08-04 15:10:00,85.6,63.1,29.96,SE,135,4.0,4.0,47,0.00,,,99.99,meteohub,2013-08-04 19:10:00,
2013-08-04 15:16:00,84.6,59.0,29.96,NW,315,7.0,7.0,42,0.00,,,99.99,meteohub,2013-08-04 19:16:00,
2013-08-04 15:22:00,83.5,60.4,29.96,NW,315,2.0,7.0,46,0.00,,,99.99,meteohub,2013-08-04 19:22:00,
2013-08-04 15:29:00,84.0,62.2,29.96,West,270,2.0,7.0,48,0.00,,,99.99,meteohub,2013-08-04 19:29:00,
2013-08-04 15:35:00,83.3,62.1,29.96,SE,135,4.0,4.0,49,0.00,,,99.99,meteohub,2013-08-04 19:35:00,
2013-08-04 15:41:00,81.9,64.6,29.96,NE,45,2.0,4.0,56,0.00,,,99.99,meteohub,2013-08-04 19:41:00,
2013-08-04 15:47:00,82.4,60.8,29.96,South,180,3.0,5.0,48,0.00,,,99.99,meteohub,2013-08-04 19:47:00,
2013-08-04 15:52:00,83.3,60.4,29.97,SW,225,3.0,5.0,46,0.00,,,99.99,meteohub,2013-08-04 19:52:00,
2013-08-04 15:57:00,83.7,58.8,29.96,NE,45,4.0,5.0,43,0.00,,,99.99,meteohub,2013-08-04 19:57:00,
2013-08-04 16:02:00,84.0,58.5,29.96,West,270,3.0,7.0,42,0.00,,,99.99,meteohub,2013-08-04 20:02:00,
2013-08-04 16:08:00,84.7,56.3,29.96,NE,45,3.0,7.0,38,0.00,,,99.99,meteohub,2013-08-04 20:08:00,
2013-08-04 16:14:00,85.1,55.2,29.96,NW,315,4.0,7.0,36,0.00,,,99.99,meteohub,2013-08-04 20:14:00,
2013-08-04 16:21:00,85.1,59.4,29.96,South,180,2.0,7.0,42,0.00,,,99.99,meteohub,2013-08-04 20:21:00,
2013-08-04 16:27:00,84.6,55.4,29.96,West,270,4.0,4.0,37,0.00,,,99.99,meteohub,2013-08-04 20:27:00,
2013-08-04 16:31:00,84.7,57.7,29.96,SW,225,3.0,4.0,40,0.00,,,99.99,meteohub,2013-08-04 20:31:00,
2013-08-04 16:36:00,84.9,57.9,29.96,West,270,1.0,4.0,40,0.00,,,99.99,meteohub,2013-08-04 20:36:00,
2013-08-04 16:42:00,84.9,61.9,29.96,North,0,2.0,4.0,46,0.00,,,99.99,meteohub,2013-08-04 20:42:00,
2013-08-04 16:47:00,84.9,54.1,29.96,East,90,3.0,4.0,35,0.00,,,99.99,meteohub,2013-08-04 20:47:00,
2013-08-04 16:54:00,84.9,60.6,29.97,WSW,248,1.0,5.0,44,0.00,,,99.99,meteohub,2013-08-04 20:54:00,
2013-08-04 17:00:00,84.4,60.1,29.96,South,180,2.0,8.0,44,0.00,,,99.99,meteohub,2013-08-04 21:00:00,
2013-08-04 17:06:00,84.2,59.4,29.97,NE,45,2.0,8.0,43,0.00,,,99.99,meteohub,2013-08-04 21:06:00,
2013-08-04 17:12:00,84.2,55.0,29.97,NNE,23,3.0,4.0,37,0.00,,,99.99,meteohub,2013-08-04 21:12:00,
2013-08-04 17:17:00,84.4,54.5,29.97,SW,225,4.0,4.0,36,0.00,,,99.99,meteohub,2013-08-04 21:17:00,
2013-08-04 17:25:00,84.6,59.0,29.97,West,270,3.0,5.0,42,0.00,,,99.99,meteohub,2013-08-04 21:25:00,
2013-08-04 17:31:00,84.6,60.3,29.97,West,270,2.0,4.0,44,0.00,,,99.99,meteohub,2013-08-04 21:31:00,
2013-08-04 17:37:00,84.2,61.2,29.96,West,270,2.0,4.0,46,0.00,,,99.99,meteohub,2013-08-04 21:37:00,
2013-08-04 17:42:00,83.7,62.4,29.97,West,270,1.0,4.0,49,0.00,,,99.99,meteohub,2013-08-04 21:42:00,
2013-08-04 17:47:00,82.6,62.1,29.97,West,270,2.0,4.0,50,0.00,,,99.99,meteohub,2013-08-04 21:47:00,
2013-08-04 17:52:00,81.3,59.7,29.97,South,180,3.0,3.0,48,0.00,,,99.99,meteohub,2013-08-04 21:52:00,
2013-08-04 17:57:00,80.8,62.1,29.97,South,180,0.0,3.0,53,0.00,,,99.99,meteohub,2013-08-04 21:57:00,
2013-08-04 18:02:00,80.4,62.8,29.97,South,180,1.0,3.0,55,0.00,,,99.99,meteohub,2013-08-04 22:02:00,
2013-08-04 18:07:00,80.1,63.9,29.97,South,180,1.0,3.0,58,0.00,,,99.99,meteohub,2013-08-04 22:07:00,
2013-08-04 18:12:00,79.5,63.5,29.97,South,180,0.0,2.0,58,0.00,,,99.99,meteohub,2013-08-04 22:12:00,
2013-08-04 18:17:00,79.2,63.7,29.97,South,180,2.0,2.0,59,0.00,,,99.99,meteohub,2013-08-04 22:17:00,
2013-08-04 18:22:00,78.4,63.9,29.96,South,180,2.0,2.0,61,0.00,,,99.99,meteohub,2013-08-04 22:22:00,
2013-08-04 18:27:00,78.1,64.0,29.96,South,180,0.0,2.0,62,0.00,,,99.99,meteohub,2013-08-04 22:27:00,
2013-08-04 18:32:00,77.7,63.7,29.96,South,180,2.0,2.0,62,0.00,,,99.99,meteohub,2013-08-04 22:32:00,
2013-08-04 18:38:00,77.4,64.2,29.96,South,180,0.0,2.0,64,0.00,,,99.99,meteohub,2013-08-04 22:38:00,
2013-08-04 18:44:00,77.0,65.1,29.97,South,180,0.0,2.0,67,0.00,,,99.99,meteohub,2013-08-04 22:44:00,
2013-08-04 18:50:00,76.5,64.8,29.97,South,180,0.0,2.0,67,0.00,,,99.99,meteohub,2013-08-04 22:50:00,
2013-08-04 18:57:00,76.1,64.8,29.97,West,270,3.0,3.0,68,0.00,,,99.99,meteohub,2013-08-04 22:57:00,
2013-08-04 19:02:00,75.7,65.3,29.97,NW,315,1.0,3.0,70,0.00,,,99.99,meteohub,2013-08-04 23:02:00,
2013-08-04 19:07:00,75.4,65.3,29.97,NW,315,1.0,3.0,71,0.00,,,99.99,meteohub,2013-08-04 23:07:00,
2013-08-04 19:12:00,75.0,65.3,29.97,NW,315,0.0,3.0,72,0.00,,,99.99,meteohub,2013-08-04 23:12:00,
2013-08-04 19:18:00,74.7,65.1,29.97,NW,315,2.0,2.0,72,0.00,,,99.99,meteohub,2013-08-04 23:18:00,
2013-08-04 19:24:00,74.3,64.8,29.98,NW,315,0.0,2.0,72,0.00,,,99.99,meteohub,2013-08-04 23:24:00,
2013-08-04 19:30:00,73.9,64.8,29.98,NW,315,1.0,2.0,73,0.00,,,99.99,meteohub,2013-08-04 23:30:00,
2013-08-04 19:36:00,73.6,64.8,29.98,NW,315,0.0,2.0,74,0.00,,,99.99,meteohub,2013-08-04 23:36:00,
2013-08-04 19:41:00,73.2,65.1,29.98,NW,315,0.0,2.0,76,0.00,,,99.99,meteohub,2013-08-04 23:41:00,
2013-08-04 19:47:00,72.9,65.3,29.98,NW,315,0.0,1.0,77,0.00,,,99.99,meteohub,2013-08-04 23:47:00,
2013-08-04 19:52:00,72.5,65.7,29.98,NW,315,0.0,0.0,79,0.00,,,99.99,meteohub,2013-08-04 23:52:00,
2013-08-04 19:57:00,72.0,65.5,29.99,NW,315,2.0,0.0,80,0.00,,,99.99,meteohub,2013-08-04 23:57:00,
2013-08-04 20:02:00,71.6,65.5,29.99,NW,315,0.0,2.0,81,0.00,,,99.99,meteohub,2013-08-05 00:02:00,
2013-08-04 20:10:00,70.9,65.1,29.99,NW,315,0.0,2.0,82,0.00,,,99.99,meteohub,2013-08-05 00:10:00,
2013-08-04 20:16:00,70.5,65.1,29.99,NW,315,0.0,0.0,83,0.00,,,99.99,meteohub,2013-08-05 00:16:00,
2013-08-04 20:22:00,70.2,65.1,29.99,NW,315,0.0,0.0,84,0.00,,,99.99,meteohub,2013-08-05 00:22:00,
2013-08-04 20:27:00,69.8,65.1,29.99,NW,315,0.0,0.0,85,0.00,,,99.99,meteohub,2013-08-05 00:27:00,
2013-08-04 20:32:00,69.4,65.1,29.99,NW,315,0.0,0.0,86,0.00,,,99.99,meteohub,2013-08-05 00:32:00,
2013-08-04 20:37:00,69.1,64.8,29.99,NW,315,0.0,0.0,86,0.00,,,99.99,meteohub,2013-08-05 00:37:00,
2013-08-04 20:43:00,68.7,64.8,29.99,NW,315,0.0,0.0,87,0.00,,,99.99,meteohub,2013-08-05 00:43:00,
2013-08-04 20:50:00,68.4,64.4,29.99,NW,315,0.0,0.0,87,0.00,,,99.99,meteohub,2013-08-05 00:50:00,
2013-08-04 20:56:00,68.2,64.4,29.99,NW,315,0.0,0.0,88,0.00,,,99.99,meteohub,2013-08-05 00:56:00,
2013-08-04 21:02:00,68.0,64.4,30.00,NW,315,0.0,0.0,88,0.00,,,99.99,meteohub,2013-08-05 01:02:00,
2013-08-04 21:08:00,67.8,64.4,30.00,NW,315,1.0,0.0,89,0.00,,,99.99,meteohub,2013-08-05 01:08:00,
2013-08-04 21:14:00,67.5,64.0,30.00,NW,315,0.0,1.0,89,0.00,,,99.99,meteohub,2013-08-05 01:14:00,
2013-08-04 21:20:00,67.3,64.2,30.00,NW,315,0.0,1.0,90,0.00,,,99.99,meteohub,2013-08-05 01:20:00,
2013-08-04 21:26:00,67.1,64.0,30.00,NW,315,0.0,0.0,90,0.00,,,99.99,meteohub,2013-08-05 01:26:00,
2013-08-04 21:32:00,67.1,64.0,30.01,NW,315,0.0,0.0,90,0.00,,,99.99,meteohub,2013-08-05 01:32:00,
2013-08-04 21:36:00,66.7,64.0,30.01,NW,315,0.0,0.0,91,0.00,,,99.99,meteohub,2013-08-05 01:36:00,
2013-08-04 21:44:00,66.6,63.9,30.01,NW,315,0.0,0.0,91,0.00,,,99.99,meteohub,2013-08-05 01:44:00,
2013-08-04 21:51:00,66.4,64.0,30.01,NW,315,0.0,0.0,92,0.00,,,99.99,meteohub,2013-08-05 01:51:00,
2013-08-04 21:57:00,66.2,63.9,30.02,NW,315,0.0,0.0,92,0.00,,,99.99,meteohub,2013-08-05 01:57:00,
2013-08-04 22:02:00,66.2,63.9,30.02,NW,315,0.0,0.0,92,0.00,,,99.99,meteohub,2013-08-05 02:02:00,
2013-08-04 22:07:00,65.8,63.5,30.02,NW,315,0.0,0.0,92,0.00,,,99.99,meteohub,2013-08-05 02:07:00,
2013-08-04 22:12:00,65.8,63.5,30.03,NW,315,0.0,0.0,92,0.00,,,99.99,meteohub,2013-08-05 02:12:00,
2013-08-04 22:18:00,65.7,63.5,30.02,NW,315,0.0,0.0,93,0.00,,,99.99,meteohub,2013-08-05 02:18:00,
2013-08-04 22:24:00,65.7,63.5,30.03,NW,315,0.0,0.0,93,0.00,,,99.99,meteohub,2013-08-05 02:24:00,
2013-08-04 22:30:00,65.7,63.5,30.03,NW,315,0.0,0.0,93,0.00,,,99.99,meteohub,2013-08-05 02:30:00,
2013-08-04 22:36:00,65.3,63.5,30.04,NW,315,0.0,1.0,94,0.00,,,99.99,meteohub,2013-08-05 02:36:00,
2013-08-04 22:42:00,65.1,63.3,30.03,NW,315,0.0,1.0,94,0.00,,,99.99,meteohub,2013-08-05 02:42:00,
2013-08-04 22:47:00,65.1,63.3,30.03,NW,315,0.0,1.0,94,0.00,,,99.99,meteohub,2013-08-05 02:47:00,
2013-08-04 22:52:00,65.1,63.3,30.03,NW,315,0.0,1.0,94,0.00,,,99.99,meteohub,2013-08-05 02:52:00,
2013-08-04 22:57:00,65.1,63.3,30.03,NW,315,0.0,0.0,94,0.00,,,99.99,meteohub,2013-08-05 02:57:00,
2013-08-04 23:04:00,64.9,63.5,30.03,NW,315,0.0,0.0,95,0.00,,,99.99,meteohub,2013-08-05 03:04:00,
2013-08-04 23:10:00,64.9,63.5,30.03,NW,315,0.0,0.0,95,0.00,,,99.99,meteohub,2013-08-05 03:10:00,
2013-08-04 23:16:00,64.8,63.3,30.03,NW,315,0.0,0.0,95,0.00,,,99.99,meteohub,2013-08-05 03:16:00,
2013-08-04 23:22:00,64.8,63.3,30.03,NW,315,0.0,0.0,95,0.00,,,99.99,meteohub,2013-08-05 03:22:00,
2013-08-04 23:27:00,64.6,63.1,30.03,NW,315,0.0,0.0,95,0.00,,,99.99,meteohub,2013-08-05 03:27:00,
2013-08-04 23:32:00,64.8,63.3,30.03,NW,315,0.0,0.0,95,0.00,,,99.99,meteohub,2013-08-05 03:32:00,
2013-08-04 23:38:00,64.6,63.1,30.04,NW,315,0.0,0.0,95,0.00,,,99.99,meteohub,2013-08-05 03:38:00,
2013-08-04 23:43:00,64.4,63.0,30.03,NW,315,0.0,0.0,95,0.00,,,99.99,meteohub,2013-08-05 03:43:00,
2013-08-04 23:50:00,64.4,63.0,30.04,NW,315,0.0,0.0,95,0.00,,,99.99,meteohub,2013-08-05 03:50:00,
2013-08-04 23:56:00,75.7,74.1,30.04,NW,315,0.0,0.0,95,0.00,,,99.99,meteohub,2013-08-05 03:56:00,